Location: Morisset
(33.1080°S, 151.4871°E)
Time: 07:41:15
(UTC+00:00)

ATLAS 2AS CENTAUR R/B - Pass Details

Date: 29 October 2020
Orbit: 939 x 1273 km, 63.7° (Epoch: 23 November)

Event Time Altitude Azimuth Distance (km) Brightness Sun altitude
Exits shadow 13:35:30 22° 163° (SSE) 1,968 4.5 -43.2°
Drops below altitude 10° 13:37:33 10° 157° (SSE) 2,690 5.3 -43.2°
Sets 13:40:11 0° 153° (SSE) 3,659 6.2 -43.2°
